Richmond, KY

1:48 AM EST on November 20, 2017 (GMT -0500)
Richmond

Weather History for KI39 - May, 2014

Change the Weather History Date:

Wednesday, May 21, 2014

  Actual Average (KLOZ) Record (KLOZ)
Temperature  
Mean Temperature 70 °F -  
Max Temperature 80 °F 77 °F 88 °F (1962)
Min Temperature 60 °F 55 °F 38 °F (2002)
Cooling Degree Days 5    
Growing Degree Days 20 (Base 50)    
Moisture  
Dew Point 58 °F    
Average Humidity 62    
Maximum Humidity 94    
Minimum Humidity 49    
Precipitation  
Precipitation 0.00 in - - ()
Sea Level Pressure  
Sea Level Pressure 30.04 in    
Wind  
Wind Speed 10 mph (SW)    
Max Wind Speed 21 mph    
Max Gust Speed 45 mph    
Visibility 10 miles    
Events      
Averages and records for this station are not official NWS values.
T = Trace of Precipitation, MM = Missing Value Source: NWS Daily Summary

Daily Weather History Graph

Daily Weather History Graph

Search for Another Location

Airport or City:

Trip Planner

Search our weather history database for the weather conditions in past years. The results will help you decide how hot, cold, wet, or windy it might be!

Date:

Astronomy

May. 21, 2014 Rise Set
Actual Time 6:23 AM EDT 8:45 PM EDT
Civil Twilight 5:53 AM EDT 9:14 PM EDT
Nautical Twilight 5:16 AM EDT 9:51 PM EDT
Astronomical Twilight 4:36 AM EDT 10:32 PM EDT
Moon 1:56 AM EDT (5/21) 1:33 PM EDT (5/21)
Length of Visible Light 15h 21m
Length of Day
14h 21m
Waning Gibbous, 49% of the Moon is Illuminated
May 21
Waning Gibbous
May 28
New
Jun 5
First Quarter
Jun 13
Full
Jun 19
Last Quarter

Hourly Weather History & Observations

Time (EDT) Temp. Heat Index Dew Point Humidity Pressure Visibility Wind Dir Wind Speed Gust Speed Precip Events Conditions
12:15 AM 69.8 °F - 51.8 °F 53% 30.04 in 10.0 mi SSW 6.9 mph - N/A   Clear
12:35 AM 69.8 °F - 51.8 °F 53% 30.05 in 10.0 mi SSW 9.2 mph - N/A   Clear
12:55 AM 69.8 °F - 51.8 °F 53% 30.05 in 10.0 mi SSW 8.1 mph - N/A   Clear
1:15 AM 69.8 °F - 51.8 °F 53% 30.05 in 10.0 mi SSW 8.1 mph - N/A   Clear
1:35 AM 68.0 °F - 51.8 °F 56% 30.05 in 10.0 mi SW 8.1 mph - N/A   Clear
1:55 AM 69.8 °F - 51.8 °F 53% 30.05 in 10.0 mi SW 11.5 mph 18.4 mph N/A   Clear
2:15 AM 69.8 °F - 51.8 °F 53% 30.05 in 10.0 mi SW 10.4 mph - N/A   Clear
2:35 AM 69.8 °F - 50.0 °F 49% 30.04 in 10.0 mi SW 11.5 mph - N/A   Clear
2:55 AM 69.8 °F - 50.0 °F 49% 30.04 in 10.0 mi SW 10.4 mph - N/A   Clear
3:15 AM 69.8 °F - 50.0 °F 49% 30.04 in 10.0 mi SW 9.2 mph - N/A   Clear
3:35 AM 68.0 °F - 50.0 °F 52% 30.04 in 10.0 mi SW 11.5 mph - N/A   Clear
3:55 AM 69.8 °F - 50.0 °F 49% 30.04 in 10.0 mi SW 11.5 mph 17.3 mph N/A   Clear
4:15 AM 69.8 °F - 50.0 °F 49% 30.05 in 10.0 mi SW 10.4 mph - N/A   Scattered Clouds
4:35 AM 69.8 °F - 50.0 °F 49% 30.04 in 10.0 mi SSW 10.4 mph - N/A   Overcast
4:55 AM 68.0 °F - 50.0 °F 52% 30.04 in 10.0 mi SSW 9.2 mph - N/A   Overcast
5:15 AM 68.0 °F - 50.0 °F 52% 30.03 in 10.0 mi SSW 10.4 mph - N/A   Overcast
5:35 AM 68.0 °F - 50.0 °F 52% 30.04 in 10.0 mi SSW 11.5 mph - N/A   Overcast
5:55 AM 68.0 °F - 50.0 °F 52% 30.04 in 10.0 mi SSW 9.2 mph - N/A   Scattered Clouds
6:15 AM 66.2 °F - 51.8 °F 60% 30.04 in 10.0 mi SSW 10.4 mph - N/A   Scattered Clouds
6:35 AM 66.2 °F - 51.8 °F 60% 30.04 in 10.0 mi SSW 9.2 mph - N/A   Mostly Cloudy
7:15 AM 66.2 °F - 51.8 °F 60% 30.06 in 10.0 mi SSW 9.2 mph - N/A   Mostly Cloudy
7:35 AM 68.0 °F - 51.8 °F 56% 30.06 in 10.0 mi SSW 9.2 mph - N/A   Overcast
8:15 AM 68.0 °F - 53.6 °F 60% 30.06 in 10.0 mi SSW 10.4 mph - N/A   Overcast
8:35 AM 69.8 °F - 53.6 °F 56% 30.05 in 10.0 mi SSW 9.2 mph - N/A   Mostly Cloudy
8:55 AM 69.8 °F - 55.4 °F 60% 30.05 in 10.0 mi SSW 12.7 mph 18.4 mph N/A   Overcast
9:15 AM 69.8 °F - 55.4 °F 60% 30.05 in 10.0 mi SSW 13.8 mph 19.6 mph N/A   Overcast
9:35 AM 69.8 °F - 55.4 °F 60% 30.05 in 10.0 mi SW 15.0 mph - N/A   Overcast
9:55 AM 69.8 °F - 57.2 °F 64% 30.05 in 10.0 mi SSW 12.7 mph - N/A   Overcast
10:15 AM 71.6 °F - 57.2 °F 60% 30.05 in 10.0 mi SW 13.8 mph - N/A   Overcast
10:35 AM 71.6 °F - 57.2 °F 60% 30.05 in 10.0 mi SW 11.5 mph 16.1 mph N/A   Overcast
10:55 AM 73.4 °F - 59.0 °F 61% 30.05 in 10.0 mi SW 11.5 mph 20.7 mph N/A   Overcast
11:15 AM 73.4 °F - 59.0 °F 61% 30.05 in 10.0 mi WSW 10.4 mph 20.7 mph N/A   Overcast
11:35 AM 73.4 °F - 59.0 °F 61% 30.05 in 10.0 mi WSW 13.8 mph 20.7 mph N/A   Overcast
11:55 AM 73.4 °F - 60.8 °F 65% 30.05 in 10.0 mi WSW 15.0 mph 19.6 mph N/A   Overcast
12:15 PM 75.2 °F - 60.8 °F 61% 30.05 in 10.0 mi WSW 11.5 mph 18.4 mph N/A   Overcast
12:35 PM 75.2 °F - 60.8 °F 61% 30.05 in 10.0 mi West 15.0 mph 20.7 mph N/A   Overcast
12:55 PM 75.2 °F - 60.8 °F 61% 30.05 in 10.0 mi West 13.8 mph 20.7 mph N/A   Overcast
1:15 PM 77.0 °F - 62.6 °F 61% 30.05 in 10.0 mi WSW 15.0 mph 20.7 mph N/A   Mostly Cloudy
1:35 PM 77.0 °F - 62.6 °F 61% 30.05 in 10.0 mi WSW 12.7 mph 19.6 mph N/A   Overcast
1:55 PM 75.2 °F - 62.6 °F 65% 30.05 in 10.0 mi WSW 11.5 mph 17.3 mph N/A   Overcast
2:15 PM 77.0 °F - 62.6 °F 61% 30.05 in 7.0 mi WSW 8.1 mph - N/A   Overcast
2:35 PM 75.2 °F - 62.6 °F 65% 30.05 in 10.0 mi WSW 12.7 mph 17.3 mph N/A   Overcast
2:55 PM 77.0 °F - 62.6 °F 61% 30.04 in 10.0 mi WSW 6.9 mph - N/A   Overcast
3:15 PM 78.8 °F - 64.4 °F 61% 30.04 in 10.0 mi WSW 11.5 mph - N/A   Overcast
3:35 PM 78.8 °F - 64.4 °F 61% 30.03 in 10.0 mi SW 11.5 mph 17.3 mph N/A   Mostly Cloudy
3:55 PM 78.8 °F - 62.6 °F 57% 30.03 in 10.0 mi SW 8.1 mph - N/A   Mostly Cloudy
4:15 PM 77.0 °F - 64.4 °F 65% 30.03 in 7.0 mi West 10.4 mph - N/A   Overcast
4:35 PM 78.8 °F - 64.4 °F 61% 30.02 in 10.0 mi WSW 10.4 mph 16.1 mph N/A   Overcast
4:55 PM 78.8 °F - 64.4 °F 61% 30.01 in 10.0 mi West 9.2 mph - N/A   Mostly Cloudy
5:15 PM 78.8 °F - 64.4 °F 61% 30.00 in 10.0 mi SW 11.5 mph - N/A   Mostly Cloudy
5:35 PM 78.8 °F - 64.4 °F 61% 29.99 in 10.0 mi SW 13.8 mph 17.3 mph N/A   Mostly Cloudy
5:55 PM 80.6 °F 82.3 °F 64.4 °F 58% 29.99 in 10.0 mi WSW 9.2 mph 16.1 mph N/A   Scattered Clouds
6:15 PM 80.6 °F 82.3 °F 64.4 °F 58% 29.99 in 10.0 mi WSW 13.8 mph 20.7 mph N/A   Clear
6:35 PM 78.8 °F - 64.4 °F 61% 29.99 in 10.0 mi WSW 10.4 mph 20.7 mph N/A   Clear
6:55 PM 78.8 °F - 64.4 °F 61% 29.98 in 10.0 mi WSW 10.4 mph 19.6 mph N/A   Clear
7:15 PM 77.0 °F - 64.4 °F 65% 29.99 in 7.0 mi SW 9.2 mph 17.3 mph N/A   Scattered Clouds
7:35 PM 77.0 °F - 64.4 °F 65% 29.98 in 7.0 mi SW 9.2 mph - N/A   Scattered Clouds
7:55 PM 77.0 °F - 64.4 °F 65% 29.99 in 10.0 mi WSW 6.9 mph - N/A   Scattered Clouds
8:15 PM 75.2 °F - 64.4 °F 69% 29.98 in 10.0 mi SW 6.9 mph - N/A   Scattered Clouds
8:35 PM 75.2 °F - 64.4 °F 69% 30.00 in 10.0 mi SSW 8.1 mph - N/A   Mostly Cloudy
8:55 PM 75.2 °F - 64.4 °F 69% 30.00 in 10.0 mi SW 8.1 mph - N/A   Mostly Cloudy
9:15 PM 75.2 °F - 64.4 °F 69% 29.99 in 10.0 mi SW 11.5 mph - N/A   Scattered Clouds
9:35 PM 62.6 °F - 59.0 °F 88% 30.08 in 0.8 mi WNW 20.7 mph 44.9 mph N/A   Overcast
9:55 PM 62.6 °F - 59.0 °F 88% 30.08 in 7.0 mi WNW 9.2 mph 24.2 mph N/A   Overcast
10:15 PM 62.6 °F - 59.0 °F 88% 30.09 in 10.0 mi West 6.9 mph - N/A   Overcast
10:35 PM 62.6 °F - 59.0 °F 88% 30.10 in 10.0 mi West 3.5 mph - N/A   Overcast
10:55 PM 62.6 °F - 59.0 °F 88% 30.06 in 10.0 mi SE 6.9 mph - N/A   Overcast
11:15 PM 62.6 °F - 59.0 °F 88% 30.00 in 10.0 mi SE 10.4 mph - N/A   Overcast
11:35 PM 60.8 °F - 59.0 °F 94% 30.03 in 10.0 mi SSW 6.9 mph - N/A   Scattered Clouds
11:55 PM 60.8 °F - 59.0 °F 94% 30.04 in 10.0 mi SSW 9.2 mph - N/A   Clear